Location: Kitchener
(43.4500°N, 80.5000°W)
Time: 10:45:08
(UTC-04:00)

ATLAS 5 CENTAUR R/B - Visible Passes

Search period start: 26 September 2017 00:00
Search period end: 06 October 2017 00:00
Orbit: 624 x 1036 km, 63.4° (Epoch: 24 September)

Date Brightness Start Highest point End Pass type
(mag) Time Alt. Az. Time Alt. Az. Time Alt. Az.
26 Sep 4.5 04:21:32 10° NNW 04:25:59 22° NE 04:30:43 10° E visible
26 Sep 2.5 06:05:32 10° NW 06:11:30 82° NE 06:18:04 10° SE visible
26 Sep 4.0 20:57:38 10° S 20:57:40 10° S 20:57:40 10° S visible
27 Sep 4.6 04:02:37 10° NNW 04:06:57 21° NNE 04:11:35 10° E visible
27 Sep 2.6 05:46:33 10° NW 05:52:31 78° NE 05:59:04 10° SE visible
27 Sep 2.7 20:38:47 10° S 20:41:37 26° SE 20:41:37 26° SE visible
27 Sep 4.3 22:22:49 10° WSW 22:23:19 13° WSW 22:23:19 13° WSW visible
28 Sep 4.6 03:43:41 10° NNW 03:47:55 20° NNE 03:52:27 10° E visible
28 Sep 2.6 05:27:35 10° NNW 05:33:33 74° NE 05:40:04 10° SE visible
28 Sep 2.6 20:19:56 10° S 20:23:48 27° ESE 20:25:29 22° E visible
28 Sep 3.1 22:03:47 10° WSW 22:07:11 36° WNW 22:07:11 36° WNW visible
29 Sep 4.6 03:25:10 11° N 03:28:53 20° NNE 03:33:19 10° ENE visible
29 Sep 2.6 05:08:38 10° NNW 05:14:34 71° NE 05:21:04 10° SE visible
29 Sep 2.7 20:01:06 10° S 20:04:52 25° ESE 20:08:53 10° ENE visible
29 Sep 2.8 21:44:46 10° WSW 21:49:14 44° NW 21:50:46 34° N visible
30 Sep 4.6 03:08:09 17° N 03:09:51 19° NNE 03:14:09 10° ENE visible
30 Sep 2.7 04:49:49 11° NNW 04:55:35 67° NE 05:02:04 10° SE visible
30 Sep 3.4 06:35:06 10° WNW 06:40:00 25° WSW 06:45:11 10° SSW visible
30 Sep 2.8 19:42:17 10° SSE 19:45:57 24° ESE 19:49:49 10° ENE visible
30 Sep 2.7 21:25:44 10° WSW 21:30:14 46° NW 21:33:51 17° NNE visible
30 Sep 4.8 23:13:57 10° NW 23:15:29 13° NNW 23:15:29 13° NNW visible
01 Oct 4.7 02:51:41 18° NE 02:51:41 18° NE 02:55:00 10° ENE visible
01 Oct 2.7 04:33:23 28° NNW 04:36:35 64° NE 04:43:03 10° SE visible
01 Oct 3.3 06:16:02 10° WNW 06:21:03 27° WSW 06:26:23 10° SSW visible
01 Oct 2.6 21:06:44 10° WSW 21:11:15 49° NW 21:16:14 10° NNE visible
01 Oct 4.7 22:54:47 10° NW 22:57:18 14° NNW 22:58:03 13° NNW visible
02 Oct 5.1 02:35:38 11° ENE 02:35:38 11° ENE 02:35:50 10° ENE visible
02 Oct 2.8 04:17:21 60° NE 04:17:37 61° NE 04:24:02 10° SE visible
02 Oct 3.2 05:59:05 19° WNW 06:02:07 28° WSW 06:07:33 10° S visible
02 Oct 2.5 20:47:43 10° SW 20:52:15 52° NW 20:57:16 10° NNE visible
02 Oct 4.7 22:35:38 10° NW 22:38:15 14° NNW 22:40:13 12° N visible
03 Oct 3.7 04:01:30 32° ESE 04:01:30 32° ESE 04:05:00 10° SE visible
03 Oct 3.1 05:43:14 30° WSW 05:43:14 30° WSW 05:48:43 10° S visible
03 Oct 2.4 20:28:42 10° SW 20:33:16 56° NW 20:38:18 10° NNE visible
03 Oct 4.6 22:16:28 10° WNW 22:19:12 14° NNW 22:22:06 10° N visible
04 Oct 4.9 03:45:36 12° SE 03:45:36 12° SE 03:45:59 10° SE visible
04 Oct 3.9 05:27:20 21° SSW 05:27:20 21° SSW 05:29:53 10° S visible
04 Oct 2.3 20:09:42 10° SW 20:14:17 59° NW 20:19:21 10° NNE visible
04 Oct 4.6 21:57:19 10° WNW 22:00:10 15° NNW 22:03:10 10° N visible
05 Oct 2.3 19:50:42 10° SW 19:55:18 63° NW 20:00:23 10° NNE visible
05 Oct 4.5 21:38:11 10° WNW 21:41:07 15° NNW 21:44:15 10° N visible
